Regional Weather Roundup
Issued by NWS

Home | Current Version | Previous Version | Graphics & Text | Print | Product List | Glossary On
Versions: 1 2 3 4 5 6 7 8 9 10 11 12 13 14 15 16 17 18 19 20 21 22 23 24 25 26 27 28 29 30 31 32 33 34 35 36 37 38 39 40 41 42 43 44 45 46 47 48 49 50
000
ASUS45 KCYS 030410
RWRWY

WYOMING REGIONAL WEATHER ROUNDUP
NATIONAL WEATHER SERVICE CHEYENNE WY
1000 PM MDT WED SEP 02 2015

NOTE:  "FAIR" INDICATES FEW OR NO CLOUDS BELOW 12,000 FEET
WITH NO SIGNIFICANT WEATHER AND/OR OBSTRUCTIONS TO VISIBILITY.

WYZ001-030500-
YELLOWSTONE NATIONAL PARK

CITY           SKY/WX    TMP DP  RH WIND       PRES   REMARKS
LK YELLOWSTONE   N/A     49  36  61 CALM      30.13R
W YELLOWSTONE  NOT AVBL

$$
WYZ002>013-054>058-071-098>099-030500-
NORTHERN WYOMING

CITY           SKY/WX    TMP DP  RH WIND       PRES   REMARKS
JACKSON        FAIR      61  34  36 SE3       30.02S
CODY           FAIR      75  36  23 S5        29.87R
GREYBULL       FAIR      73  33  23 MISG      29.76R
WORLAND        FAIR      78  31  17 S12       29.79R
SHERIDAN       FAIR      67  40  37 VRB3      29.77R
BUFFALO        FAIR      73  33  23 W9        29.88R
GILLETTE       FAIR      75  35  23 S13       29.84R
HULETT         FAIR      73  34  23 S8        29.86S
NEWCASTLE      FAIR      73  30  20 MISG      29.88S

$$
WYZ014>020-022>026-101>103-030500-
CENTRAL WYOMING

CITY           SKY/WX    TMP DP  RH WIND       PRES   REMARKS
BIG PINEY      FAIR      61  36  39 W8        30.11R
PINEDALE       FAIR      57  36  44 W5        30.11S
DUBOIS         FAIR      64  32  29 W9        30.08S
LANDER         FAIR      74  36  25 SW10      29.94R
RIVERTON       FAIR      75  34  22 SW8       29.95R
CASPER         FAIR      67  31  26 SW9       29.97R
DOUGLAS        FAIR      70  33  25 SE7       29.97R

$$
WYZ021-027>030-104>119-030500-
SOUTHERN WYOMING

CITY           SKY/WX    TMP DP  RH WIND       PRES   REMARKS
EVANSTON       FAIR      64  33  31 S12       30.11R
KEMMERER       FAIR      63  32  31 CALM      30.13S
FORT BRIDGER   CLEAR     68  34  28 SW13      30.14S
ROCK SPRINGS   FAIR      65  41  41 S8        30.11R
DIXON          FAIR      65  43  44 E3        30.15S
RAWLINS        FAIR      66  38  35 SW7       30.13R
SARATOGA       FAIR      61  43  51 SE8       30.17S
LARAMIE        FAIR      59  41  51 SW3       30.19R
CHEYENNE       FAIR      72  40  31 W12       30.09R
TORRINGTON     FAIR      72  49  44 SE8       29.91R
PINE BLUFFS    FAIR      66  37  34 S8        30.03S

$$


USA.gov is the U.S. government's official web portal to all federal, state and local government web resources and services.